Home > Weather > Beaumont > Past weeks

Flag for USA Past Weather in Beaumont, Texas, USA — Yesterday and Last 2 Weeks

Now
78 °F

Passing clouds.


Feels Like: 81 °F
Forecast: 76 / 94 °F
Wind: 5 mph from East

Location: Jefferson County Airport

Current Time: Jul 29, 2016 at 3:03:45 AM

Latest Report: Jul 29, 2016 at 1:53 AM


Visibility: 10 mi

Pressure: 30.00 "Hg

Humidity: 90%

Dew Point: 75 °F

Location of BeaumontLocation

Past Weather in Beaumont — Graph

°F

Beaumont Temperature Yesterday

Maximum temperature yesterday: 92 °F (at 11:53 AM)
Minimum temperature yesterday: 76 °F (at 9:53 PM)
Average temperature yesterday: 82 °F

High & Low Weather Summary for the Past Weeks

 TemperatureHumidityPressure
High97 °F (Jul 22, 12:53 PM)100% (Jul 21, 4:53 AM)30.19 "Hg (Jul 21, 4:53 AM)
Low73 °F (Jul 27, 10:53 AM)44% (Jul 21, 1:53 PM)29.86 "Hg (Jul 26, 5:53 PM)
Average83 °F80%30.02 "Hg
* Reported Jul 14 1:53 AM — Jul 29 1:53 AM, Beaumont, Weather by CustomWeather, © 2016

Note: Actual official high and low records may vary slightly from our data, if they occured in-between our weather recording intervals... More about our weather records

Advertising

Beaumont Weather History for the Previous 24 Hours

Scroll right to see more
 ConditionsComfort  
Time TempWeatherWind HumidityBarometerVisibility
1:53 AM
Fri, Jul 29
78 °FPassing clouds.5 mph90%30.00 "Hg10 mi
12:53 AM76 °FClear.5 mph94%29.99 "Hg10 mi
11:53 PM
Thu, Jul 28
76 °FClear.5 mph91%29.99 "Hg10 mi
10:53 PM77 °FClear.3 mph88%29.99 "Hg10 mi
9:53 PM76 °FClear.5 mph91%29.97 "Hg10 mi
8:53 PM77 °FPassing clouds.N/A88%29.97 "Hg10 mi
7:53 PM82 °FSunny.3 mph72%29.97 "Hg10 mi
6:53 PM85 °FPassing clouds.3 mph70%29.98 "Hg10 mi
5:53 PM84 °FSunny.3 mph77%29.97 "Hg10 mi
4:53 PM84 °FSunny.3 mph74%29.97 "Hg10 mi
3:53 PM83 °FSunny.8 mph74%29.99 "Hg10 mi
2:53 PM80 °FThundershowers. Cloudy.12 mph76%30.00 "Hg10 mi
1:53 PM89 °FBroken clouds.12 mph63%29.99 "Hg10 mi
12:53 PM88 °FThundershowers. Scattered clouds.5 mph67%30.00 "Hg10 mi
11:53 AM92 °FPassing clouds.9 mph64%30.02 "Hg10 mi
10:53 AM86 °FSunny.9 mph77%30.01 "Hg10 mi
9:53 AM85 °FSunny.6 mph80%30.01 "Hg10 mi
8:53 AM84 °FSunny.8 mph83%30.01 "Hg10 mi
7:53 AM82 °FPassing clouds.5 mph91%30.00 "Hg9 mi
6:53 AM81 °FClear.3 mph88%29.99 "Hg9 mi
5:53 AM80 °FClear.6 mph90%29.98 "Hg10 mi
4:53 AM81 °FClear.5 mph88%29.98 "Hg10 mi
3:53 AM82 °FClear.6 mph82%29.97 "Hg10 mi
Weather by CustomWeather, © 2016

See weather overviewHow to use our weather pages